sat.trackr.live / text

‹ back to catalog

STARLINK-30880

NORAD 58232 · 2023-171C

PAYLOAD ACTIVE UNKNOWN

§ Identity

Operator
Country
US
Launch date
2023-11-08
Launch site
AFETR
Launch vehicle
Mass (kg)
RCS (m²)

Purposes: comms

External: N2YO · Heavens-Above · Gunter

§ Orbital elements

Epoch: 2026-09-20T16:53:23.589600Z

Period
94.27 min
Inclination
43.0028°
Eccentricity
0.0001983
Mean motion
15.27547974 rev/d
Perigee alt
481.8 km
Apogee alt
484.5 km
Semi-major
6,861.3 km
B*
-2.6261e-4
RAAN
263.5405°
Arg perigee
282.8716°
Mean anomaly
77.1914°
Rev number
15,956

§ Raw data

STARLINK-308801 58232U 23171C   26263.70374525 -.00007475  00000+0 -26261-3 0  99902 58232  43.0028 263.5405 0001983 282.8716  77.1914 15.27547974159565

JSON: /api/v1/satellites/58232 · /tle

For live sub-satellite position, see the globe view (requires WebGL).

§ Visibility from observer

Set your observer location to see the next 7 days of passes ≥ 10°. The values pass through the URL so the page stays shareable.

No JS? Fill the form by hand. The geolocation button needs JavaScript.